SCP
0 0 0 0 0 0 0 0 0 0 0 0 0 0 0 0 0 0 0 0 0 0 0 0 0 0 0 0 0 0 0 0 0 0 0 0 0 0 0 0 0 0 0
0 0 0 0 0 0 0 0 0 0 0 0 0 0 0 0 0 0 0 0 0 0 0 0 0 0 0 0 0 0 0 0 0 0 0 0 0 0 0 0 0 0 0
0 0 0 0 0 0 0 0 0 0 0 0 0 0 0 0 0 0 0 0 0 0 0 0 0 0 0 0 0 0 0 0 0 0 0 0 0 0 0 0 0 0 0
0 0 0 0 0 0 0 0 0 0 0 0 0 0 0 0 0 0 0 0 0 0 0 0 0 0 0 0 0 0 0 0 0 0 0 0 0 0 0 0 0 0 0
0 0 0 0 0 0 0 0 0 0 0 0 0 0 0 0 0 0 0 0 0 0 0 0 0 0 0 0 0 0 0 0 0 0 0 0 0 0 0 0 0 0 0
0 0 0 0 0 0 0 0 0 0 0 0 0 0 0 0 0 0 0 0 0 0 0 0 0 0 0 0 0 0 0 0 0 0 0 0 0 0 0 0 0 0 0
0 0 0 0 0 0 0 0 0 0 0 0 0 0 0 0 0 0 0 0 0 0 0 0 0 0 0 0 0 0 0 0 0 0 0 0 0 0 0 0 0 0 0
0 0 0 0 0 0 0 0 0 0 0 0 0 0 0 0 0 0 0 0 0 0 0 0 0 0 0 0 0 0 0 0 0 0 0 0 0 0 0 0 0 0 0
0 0 0 0 0 0 0 0 0 0 0 0 0 0 0 0 0 0 0 0 0 0 0 0 0 0 0 0 0 0 0 0 0 0 0 0 0 0 0 0 0 0 0
0 0 0 0 0 0 0 0 0 0 0 0 0 0 0 0 0 0 0 0 0 0 0 0 0 0 0 0 0 0 0 0 0 0 0 0 0 0 0 0 0 0 0
0 0 0 0 0 0 0 0 0 0 0 0 0 0 0 0 0 0 0 0 0 0 0 0 0 0 0 0 0 0 0 0 0 0 0 0 0 0 0 0 0 0 0
0 0 0 0 0 0 0 0 0 0 0 0 0 0 0 0 0 0 0 0 0 0 0 0 0 0 0 0 0 0 0 0 0 0 0 0 0 0 0 0 0 0 0
0 0 0 0 0 0 0 0 0 0 0 0 0 0 0 0 0 0 -0 -0 -0 0 0 -0 -0 -0 -0 0 0 0 0 0 0 0 0 0 0 0 0 0 0 0 0
-0 0 0 0 0 0 0 0 0 0 0 0 0 0 0 0 -0 -0 -0 0 0 0 -0 0 0 -0 -0 0 0 0 0 0 0 0 0 0 0 0 0 0 0 0 0
0 0 0 0 0 0 0 0 -0 0 0 0 0 -0 -0 -0 -0 -0 -0 -0 -0 -0 -0 0 -0 -0 0 0 0 0 0 0 0 0 0 0 -0 -0 -0 0 0 0 0
0 0 0 0 0 0 0 0 0 0 -0 -0 -0 -0 -0 -0 -0 -0 -0 -0 -0 0 -0 -0 0 0 0 0 0 0 0 0 0 0 0 0 0 0 0 0 0 0 -0
0 0 0 0 0 0 0 0 -0 -0 -0 -0 -0 -0 -0 -0 -0 -0 -0 -0 -0 0 0 0 -0 0 0 0 0 0 0 0 0 0 -0 -0 0 0 0 0 0 0 0
0 -0 0 0 0 0 0 -0 0 -0 -0 -0 -0 -0 -0 -0 -0 -0 -0 -0 -0 -0 0 0 0 0 0 0 0 0 0 0 0 0 0 0 0 0 0 0 0 0 0
-0 -0 0 0 0 -0 -0 -0 0 0 -0 -0 -0 -0 -0 -0 -0 -0 -0 -0 -0 -0 0 0 0 0 0 0 0 0 0 0 0 0 0 0 0 0 0 0 0 0 0
-0 -0 -0 0 0 -0 -0 -0 -0 -0 -0 -0 -0 0 -0 -0 -0 -0 -0 -0 -0 -0 -0 0 0 0 0 0 0 0 0 0 0 0 0 0 0 0 0 0 0 0 0
0 0 -0 0 0 0 -0 -0 -0 -0 -0 -0 -0 -0 -0 0 -0 -0 -0 -0 -0 -0 -0 -0 -0 0 0 0 0 0 0 0 0 0 0 0 0 0 0 0 0 0 0
0 0 0 0 0 0 0 -0 -0 -0 -0 -0 -0 -0 -0 0 0 0 -0 -0 -0 -0 -0 -0 -0 0 0 0 0 0 0 0 0 0 0 0 0 0 0 0 0 0 0
-0 0 0 0 0 0 0 0 -0 -0 -0 -0 -0 -0 0 0 0 0 0 -0 -0 -0 -0 -0 -0 -0 -0 -0 -0 -0 -0 -0 0 0 0 0 0 0 0 0 0 0 0
-0 -0 0 0 0 0 0 0 -0 -0 -0 -0 0 0 0 0 0 0 0 0 0 0 -0 -0 -0 -0 -0 -0 -0 -0 -0 -0 -0 -0 0 0 0 0 0 -0 -0 -0 -0
-0 -0 -0 0 0 0 0 0 0 0 0 0 0 0 0 0 0 0 0 0 0 0 0 -0 -0 -0 -0 -0 -0 -0 -0 -0 -0 -0 0 -0 0 0 0 -0 -0 -0 -0
-0 -0 -0 -0 -0 0 0 0 0 0 0 0 0 0 0 0 0 0 0 0 0 0 0 0 -0 -0 -0 -0 -0 -0 -0 -0 -0 -0 -0 -0 -0 -0 -0 -0 -0 -0 -0
Wind_Speed_500mb
33 29 28 25 22 21 22 22 22 24 29 33 37 40 43 46 48 52 55 59 61 61 58 54 54 52 53 54 55 59 65 71 90 99 87 85 87 92 80 69 71 73 70
28 23 21 17 14 15 17 20 24 28 32 37 40 44 47 51 54 57 58 56 56 55 52 51 51 52 59 64 68 72 78 83 89 101 89 86 82 70 67 66 65 62 70
16 10 7 7 9 13 17 22 27 31 36 40 45 50 53 56 58 57 57 56 53 52 52 55 61 65 71 72 75 76 76 74 73 78 84 80 73 63 64 65 64 61 70
5 6 8 11 14 18 23 28 33 37 41 45 50 55 59 62 62 59 51 47 49 55 61 67 73 72 67 71 69 67 62 65 68 75 81 81 79 75 66 69 68 63 66
7 11 14 18 23 28 34 39 43 46 50 54 59 60 62 61 58 47 41 42 57 64 69 62 64 65 68 63 57 60 64 69 74 77 82 79 70 67 60 61 64 69 64
13 17 22 27 33 39 44 48 51 52 52 54 56 57 57 51 45 41 44 51 57 62 65 67 69 60 58 55 61 61 65 69 73 73 76 72 76 71 65 62 65 65 68
27 32 36 39 43 45 46 47 47 47 49 53 53 49 44 39 35 37 43 50 59 60 63 64 60 60 61 65 64 60 59 59 65 75 82 84 79 75 71 63 57 63 61
32 37 40 42 42 42 40 40 40 44 49 51 41 34 36 35 33 30 37 46 53 56 53 53 58 61 52 48 50 56 61 67 72 74 80 81 72 66 64 62 58 57 54
34 38 39 36 33 32 33 33 36 47 41 38 34 29 30 31 31 34 40 46 50 50 50 58 53 52 53 54 61 70 76 76 68 72 64 58 56 54 53 49 53 51 55
36 35 32 30 30 32 31 33 36 38 37 34 33 29 30 31 28 30 30 40 47 54 56 46 51 54 57 62 70 76 83 84 74 70 56 55 51 48 53 58 61 61 48
37 35 31 30 30 29 29 27 31 32 28 26 29 27 27 25 24 24 28 38 46 51 50 55 59 63 65 62 56 55 69 67 60 62 58 55 54 51 52 46 55 65 62
41 31 26 24 24 24 24 24 23 24 25 26 28 29 27 25 21 24 27 28 31 44 49 56 56 53 55 46 47 55 56 57 64 64 51 59 52 50 42 36 39 52 57
30 22 21 19 19 21 23 25 24 22 21 24 27 33 33 30 27 24 21 21 24 39 44 46 48 55 58 57 55 57 58 51 59 51 20 25 30 35 25 24 22 27 45
25 22 23 25 26 21 22 22 19 20 19 21 30 39 39 34 35 33 29 34 41 41 38 38 46 56 70 72 66 54 65 42 38 45 18 22 32 14 29 23 28 24 30
24 22 26 30 29 23 25 23 19 16 23 31 36 35 34 37 35 31 32 39 40 33 37 51 60 66 72 75 59 53 53 58 46 16 13 16 8 25 27 22 27 29 27
29 24 25 29 33 26 24 17 16 14 19 20 20 22 22 24 24 19 15 29 46 51 55 65 68 74 83 80 75 76 72 74 68 16 12 11 12 21 28 23 26 36 18
40 29 26 27 31 32 34 33 27 23 17 18 14 11 15 17 18 9 14 25 45 39 66 77 82 77 79 82 77 73 77 83 59 41 39 27 28 27 21 28 33 49 39
40 36 29 26 27 30 32 34 38 42 38 33 24 20 13 14 16 17 24 32 39 48 70 79 84 81 81 93 87 83 78 69 59 47 39 34 28 26 32 32 27 33 34
39 36 32 27 26 27 27 31 40 41 41 40 36 31 25 28 23 24 31 45 50 57 68 73 80 81 82 79 87 74 79 67 57 34 34 33 28 26 29 30 33 27 38
34 31 29 28 27 31 30 36 38 38 42 48 46 45 40 35 37 44 50 53 59 61 64 67 74 79 81 84 89 95 81 61 62 56 27 26 29 32 35 42 36 30 27
28 26 23 23 27 29 32 36 37 37 38 44 47 45 44 48 49 47 48 52 59 56 63 64 67 71 76 79 83 88 82 75 58 62 47 36 38 38 36 31 32 38 35
23 22 23 27 26 27 28 30 34 37 39 39 40 42 43 47 45 42 43 47 50 52 56 57 61 65 70 75 80 84 86 75 61 50 52 36 44 45 37 37 29 27 28
27 25 24 25 26 26 28 31 33 35 36 37 40 42 44 46 48 45 44 43 43 45 47 50 56 56 58 65 70 74 77 76 76 70 45 32 21 22 25 38 40 35 33
35 34 34 33 28 26 27 32 34 38 38 39 39 41 43 44 45 44 44 44 38 38 43 47 50 53 51 53 57 59 60 62 61 60 61 59 59 56 49 44 39 37 38
38 40 38 39 38 39 37 38 39 40 42 42 40 40 41 42 42 43 45 46 46 40 40 43 49 48 46 44 45 45 44 46 49 48 49 48 46 44 42 41 40 35 33
38 40 41 38 41 38 39 40 40 40 43 42 41 41 43 44 44 44 44 44 43 46 46 44 43 42 45 44 40 32 30 31 35 36 36 34 35 36 36 36 36 32 23
Wind_Direction_500mb
151 155 163 172 177 188 202 215 232 246 256 264 270 275 279 283 288 290 292 292 289 288 287 285 286 290 289 289 289 288 288 286 287 292 294 298 299 301 300 295 293 292 289
133 143 150 159 182 205 226 241 252 260 267 274 278 281 284 285 288 293 296 294 290 289 289 288 286 284 285 287 287 288 288 288 289 292 296 297 299 301 297 296 296 292 288
125 146 164 208 241 259 268 275 279 283 285 285 286 287 289 291 292 293 296 293 288 285 287 288 288 288 287 289 291 293 293 292 290 291 292 297 301 301 298 298 295 291 294
206 263 275 276 280 283 287 288 288 288 288 287 286 285 287 288 290 293 291 285 284 284 288 288 287 285 290 298 298 297 297 297 298 295 295 298 299 298 296 296 292 291 295
269 282 285 289 289 289 288 288 289 290 290 289 289 289 290 291 291 288 281 276 286 289 290 291 291 291 298 296 296 298 299 297 296 294 293 293 289 289 286 290 283 295 297
308 301 299 296 294 293 293 294 295 295 295 294 295 296 296 294 291 282 275 279 286 290 293 293 298 300 299 296 294 294 291 290 287 286 285 280 284 284 278 282 282 287 295
312 310 306 303 300 299 300 302 301 301 300 298 296 295 292 293 291 282 282 283 286 294 296 302 306 305 305 303 301 297 291 285 279 281 279 278 282 281 276 277 273 277 285
322 316 311 308 308 308 308 309 310 310 310 307 302 295 293 294 297 296 297 295 295 300 303 304 304 305 309 311 307 300 293 292 289 287 284 280 280 280 274 271 274 279 280
336 330 323 318 317 316 316 317 322 319 319 321 320 313 304 307 311 307 305 304 304 303 306 306 306 310 317 312 310 302 299 297 299 296 289 291 280 271 270 262 260 262 268
344 336 328 325 324 324 323 321 320 317 315 317 317 317 316 312 316 309 307 307 310 312 314 321 321 319 318 316 310 305 300 298 298 297 286 284 273 278 262 247 244 248 251
343 337 328 326 329 326 323 322 320 319 319 326 329 325 325 321 315 305 303 310 316 320 333 331 329 325 320 315 312 304 305 304 292 293 280 271 273 274 272 256 239 237 237
349 346 343 339 337 333 328 328 327 328 338 339 338 342 347 339 336 329 319 317 322 322 330 330 329 331 331 334 326 321 311 306 289 275 289 264 264 276 279 257 234 228 232
1 8 13 14 6 355 345 342 346 348 353 354 349 351 357 5 4 3 5 2 353 334 333 339 350 359 347 343 340 335 331 331 333 294 283 286 276 285 268 231 237 226 225
15 27 24 20 14 6 356 8 12 12 14 1 351 355 4 9 14 20 18 9 356 349 353 5 1 358 353 350 349 355 358 342 335 318 269 306 301 220 195 195 199 194 203
21 33 26 15 14 33 18 18 26 15 354 345 342 352 6 8 15 9 13 16 5 8 16 6 359 2 10 4 358 3 355 348 350 347 303 334 135 166 173 166 170 190 214
24 34 26 18 24 33 43 41 20 356 337 335 340 3 16 355 357 6 20 36 26 11 27 27 28 26 24 28 16 7 9 17 4 349 110 85 108 148 148 146 133 145 153
24 30 30 22 28 34 40 45 57 51 27 38 26 13 3 19 21 37 45 47 36 22 34 38 37 31 28 24 18 16 20 30 32 107 89 89 98 106 129 143 151 162 175
26 29 32 30 34 38 42 43 42 38 41 55 62 64 46 37 40 80 74 64 60 41 38 37 36 35 31 28 32 28 40 50 55 87 103 92 101 122 128 141 139 152 159
21 28 33 39 42 42 44 48 49 42 42 49 60 68 69 66 67 69 61 55 50 47 41 36 36 36 36 35 29 43 42 61 64 74 86 75 100 132 136 138 143 154 157
15 21 27 36 46 51 48 53 52 49 44 46 47 45 52 55 58 56 56 57 50 41 39 39 37 34 35 35 34 39 48 52 57 72 88 89 104 116 118 130 139 142 145
12 20 28 34 38 48 50 52 55 53 51 48 48 49 50 54 52 52 53 48 48 36 35 34 38 35 35 36 37 38 54 45 56 60 84 75 84 108 122 117 93 101 104
29 34 36 40 43 43 48 53 53 54 51 50 47 46 48 49 50 45 42 46 44 41 32 30 38 36 33 36 38 39 40 54 59 64 81 64 76 82 96 106 101 86 79
43 45 43 44 46 48 51 54 53 52 48 44 43 42 40 40 40 38 40 36 38 37 35 27 36 38 38 36 40 40 42 44 48 58 85 62 71 65 67 77 74 73 71
47 51 50 47 46 44 49 50 52 51 47 46 42 39 40 40 38 34 35 35 33 34 34 34 31 32 35 37 40 41 42 45 50 60 66 64 59 58 63 65 64 64 66
45 48 48 47 46 46 48 48 46 45 42 42 41 40 35 37 36 35 33 30 26 26 29 25 27 24 28 35 35 39 42 41 44 51 58 60 63 64 59 54 50 48 53
40 44 46 47 45 44 44 43 42 39 38 38 36 34 32 30 31 29 29 30 26 23 24 23 18 17 16 22 32 31 30 31 32 36 43 49 54 56 53 46 37 31 31
Wind_Speed_850mb
33 29 28 25 22 21 22 22 22 24 29 33 37 40 43 46 48 52 55 59 61 61 58 54 54 52 53 54 55 59 65 71 90 99 87 85 87 92 80 69 71 73 70
28 23 21 17 14 15 17 20 24 28 32 37 40 44 47 51 54 57 58 56 56 55 52 51 51 52 59 64 68 72 78 83 89 101 89 86 82 70 67 66 65 62 70
16 10 7 7 9 13 17 22 27 31 36 40 45 50 53 56 58 57 57 56 53 52 52 55 61 65 71 72 75 76 76 74 73 78 84 80 73 63 64 65 64 61 70
5 6 8 11 14 18 23 28 33 37 41 45 50 55 59 62 62 59 51 47 49 55 61 67 73 72 67 71 69 67 62 65 68 75 81 81 79 75 66 69 68 63 66
7 11 14 18 23 28 34 39 43 46 50 54 59 60 62 61 58 47 41 42 57 64 69 62 64 65 68 63 57 60 64 69 74 77 82 79 70 67 60 61 64 69 64
13 17 22 27 33 39 44 48 51 52 52 54 56 57 57 51 45 41 44 51 57 62 65 67 69 60 58 55 61 61 65 69 73 73 76 72 76 71 65 62 65 65 68
27 32 36 39 43 45 46 47 47 47 49 53 53 49 44 39 35 37 43 50 59 60 63 64 60 60 61 65 64 60 59 59 65 75 82 84 79 75 71 63 57 63 61
32 37 40 42 42 42 40 40 40 44 49 51 41 34 36 35 33 30 37 46 53 56 53 53 58 61 52 48 50 56 61 67 72 74 80 81 72 66 64 62 58 57 54
34 38 39 36 33 32 33 33 36 47 41 38 34 29 30 31 31 34 40 46 50 50 50 58 53 52 53 54 61 70 76 76 68 72 64 58 56 54 53 49 53 51 55
36 35 32 30 30 32 31 33 36 38 37 34 33 29 30 31 28 30 30 40 47 54 56 46 51 54 57 62 70 76 83 84 74 70 56 55 51 48 53 58 61 61 48
37 35 31 30 30 29 29 27 31 32 28 26 29 27 27 25 24 24 28 38 46 51 50 55 59 63 65 62 56 55 69 67 60 62 58 55 54 51 52 46 55 65 62
41 31 26 24 24 24 24 24 23 24 25 26 28 29 27 25 21 24 27 28 31 44 49 56 56 53 55 46 47 55 56 57 64 64 51 59 52 50 42 36 39 52 57
30 22 21 19 19 21 23 25 24 22 21 24 27 33 33 30 27 24 21 21 24 39 44 46 48 55 58 57 55 57 58 51 59 51 20 25 30 35 25 24 22 27 45
25 22 23 25 26 21 22 22 19 20 19 21 30 39 39 34 35 33 29 34 41 41 38 38 46 56 70 72 66 54 65 42 38 45 18 22 32 14 29 23 28 24 30
24 22 26 30 29 23 25 23 19 16 23 31 36 35 34 37 35 31 32 39 40 33 37 51 60 66 72 75 59 53 53 58 46 16 13 16 8 25 27 22 27 29 27
29 24 25 29 33 26 24 17 16 14 19 20 20 22 22 24 24 19 15 29 46 51 55 65 68 74 83 80 75 76 72 74 68 16 12 11 12 21 28 23 26 36 18
40 29 26 27 31 32 34 33 27 23 17 18 14 11 15 17 18 9 14 25 45 39 66 77 82 77 79 82 77 73 77 83 59 41 39 27 28 27 21 28 33 49 39
40 36 29 26 27 30 32 34 38 42 38 33 24 20 13 14 16 17 24 32 39 48 70 79 84 81 81 93 87 83 78 69 59 47 39 34 28 26 32 32 27 33 34
39 36 32 27 26 27 27 31 40 41 41 40 36 31 25 28 23 24 31 45 50 57 68 73 80 81 82 79 87 74 79 67 57 34 34 33 28 26 29 30 33 27 38
34 31 29 28 27 31 30 36 38 38 42 48 46 45 40 35 37 44 50 53 59 61 64 67 74 79 81 84 89 95 81 61 62 56 27 26 29 32 35 42 36 30 27
28 26 23 23 27 29 32 36 37 37 38 44 47 45 44 48 49 47 48 52 59 56 63 64 67 71 76 79 83 88 82 75 58 62 47 36 38 38 36 31 32 38 35
23 22 23 27 26 27 28 30 34 37 39 39 40 42 43 47 45 42 43 47 50 52 56 57 61 65 70 75 80 84 86 75 61 50 52 36 44 45 37 37 29 27 28
27 25 24 25 26 26 28 31 33 35 36 37 40 42 44 46 48 45 44 43 43 45 47 50 56 56 58 65 70 74 77 76 76 70 45 32 21 22 25 38 40 35 33
35 34 34 33 28 26 27 32 34 38 38 39 39 41 43 44 45 44 44 44 38 38 43 47 50 53 51 53 57 59 60 62 61 60 61 59 59 56 49 44 39 37 38
38 40 38 39 38 39 37 38 39 40 42 42 40 40 41 42 42 43 45 46 46 40 40 43 49 48 46 44 45 45 44 46 49 48 49 48 46 44 42 41 40 35 33
38 40 41 38 41 38 39 40 40 40 43 42 41 41 43 44 44 44 44 44 43 46 46 44 43 42 45 44 40 32 30 31 35 36 36 34 35 36 36 36 36 32 23
Wind_Direction_850mb
151 155 163 172 177 188 202 215 232 246 256 264 270 275 279 283 288 290 292 292 289 288 287 285 286 290 289 289 289 288 288 286 287 292 294 298 299 301 300 295 293 292 289
133 143 150 159 182 205 226 241 252 260 267 274 278 281 284 285 288 293 296 294 290 289 289 288 286 284 285 287 287 288 288 288 289 292 296 297 299 301 297 296 296 292 288
125 146 164 208 241 259 268 275 279 283 285 285 286 287 289 291 292 293 296 293 288 285 287 288 288 288 287 289 291 293 293 292 290 291 292 297 301 301 298 298 295 291 294
206 263 275 276 280 283 287 288 288 288 288 287 286 285 287 288 290 293 291 285 284 284 288 288 287 285 290 298 298 297 297 297 298 295 295 298 299 298 296 296 292 291 295
269 282 285 289 289 289 288 288 289 290 290 289 289 289 290 291 291 288 281 276 286 289 290 291 291 291 298 296 296 298 299 297 296 294 293 293 289 289 286 290 283 295 297
308 301 299 296 294 293 293 294 295 295 295 294 295 296 296 294 291 282 275 279 286 290 293 293 298 300 299 296 294 294 291 290 287 286 285 280 284 284 278 282 282 287 295
312 310 306 303 300 299 300 302 301 301 300 298 296 295 292 293 291 282 282 283 286 294 296 302 306 305 305 303 301 297 291 285 279 281 279 278 282 281 276 277 273 277 285
322 316 311 308 308 308 308 309 310 310 310 307 302 295 293 294 297 296 297 295 295 300 303 304 304 305 309 311 307 300 293 292 289 287 284 280 280 280 274 271 274 279 280
336 330 323 318 317 316 316 317 322 319 319 321 320 313 304 307 311 307 305 304 304 303 306 306 306 310 317 312 310 302 299 297 299 296 289 291 280 271 270 262 260 262 268
344 336 328 325 324 324 323 321 320 317 315 317 317 317 316 312 316 309 307 307 310 312 314 321 321 319 318 316 310 305 300 298 298 297 286 284 273 278 262 247 244 248 251
343 337 328 326 329 326 323 322 320 319 319 326 329 325 325 321 315 305 303 310 316 320 333 331 329 325 320 315 312 304 305 304 292 293 280 271 273 274 272 256 239 237 237
349 346 343 339 337 333 328 328 327 328 338 339 338 342 347 339 336 329 319 317 322 322 330 330 329 331 331 334 326 321 311 306 289 275 289 264 264 276 279 257 234 228 232
1 8 13 14 6 355 345 342 346 348 353 354 349 351 357 5 4 3 5 2 353 334 333 339 350 359 347 343 340 335 331 331 333 294 283 286 276 285 268 231 237 226 225
15 27 24 20 14 6 356 8 12 12 14 1 351 355 4 9 14 20 18 9 356 349 353 5 1 358 353 350 349 355 358 342 335 318 269 306 301 220 195 195 199 194 203
21 33 26 15 14 33 18 18 26 15 354 345 342 352 6 8 15 9 13 16 5 8 16 6 359 2 10 4 358 3 355 348 350 347 303 334 135 166 173 166 170 190 214
24 34 26 18 24 33 43 41 20 356 337 335 340 3 16 355 357 6 20 36 26 11 27 27 28 26 24 28 16 7 9 17 4 349 110 85 108 148 148 146 133 145 153
24 30 30 22 28 34 40 45 57 51 27 38 26 13 3 19 21 37 45 47 36 22 34 38 37 31 28 24 18 16 20 30 32 107 89 89 98 106 129 143 151 162 175
26 29 32 30 34 38 42 43 42 38 41 55 62 64 46 37 40 80 74 64 60 41 38 37 36 35 31 28 32 28 40 50 55 87 103 92 101 122 128 141 139 152 159
21 28 33 39 42 42 44 48 49 42 42 49 60 68 69 66 67 69 61 55 50 47 41 36 36 36 36 35 29 43 42 61 64 74 86 75 100 132 136 138 143 154 157
15 21 27 36 46 51 48 53 52 49 44 46 47 45 52 55 58 56 56 57 50 41 39 39 37 34 35 35 34 39 48 52 57 72 88 89 104 116 118 130 139 142 145
12 20 28 34 38 48 50 52 55 53 51 48 48 49 50 54 52 52 53 48 48 36 35 34 38 35 35 36 37 38 54 45 56 60 84 75 84 108 122 117 93 101 104
29 34 36 40 43 43 48 53 53 54 51 50 47 46 48 49 50 45 42 46 44 41 32 30 38 36 33 36 38 39 40 54 59 64 81 64 76 82 96 106 101 86 79
43 45 43 44 46 48 51 54 53 52 48 44 43 42 40 40 40 38 40 36 38 37 35 27 36 38 38 36 40 40 42 44 48 58 85 62 71 65 67 77 74 73 71
47 51 50 47 46 44 49 50 52 51 47 46 42 39 40 40 38 34 35 35 33 34 34 34 31 32 35 37 40 41 42 45 50 60 66 64 59 58 63 65 64 64 66
45 48 48 47 46 46 48 48 46 45 42 42 41 40 35 37 36 35 33 30 26 26 29 25 27 24 28 35 35 39 42 41 44 51 58 60 63 64 59 54 50 48 53
40 44 46 47 45 44 44 43 42 39 38 38 36 34 32 30 31 29 29 30 26 23 24 23 18 17 16 22 32 31 30 31 32 36 43 49 54 56 53 46 37 31 31